Temp
78 78 77 79 77 76 75 75 75 74 75 77 77 76 76 75 75 73 73 74 74 72 72 70 62 67 70 67 66 65 62 63 63 61 61 62 62 62 63 63 64 63 61
79 79 77 78 77 74 74 75 76 74 76 77 78 77 76 76 74 74 74 74 73 72 68 69 69 70 65 64 65 64 65 67 65 59 60 61 61 62 62 62 62 63 62
80 79 77 76 76 74 74 74 76 75 76 77 78 77 76 75 74 74 74 74 71 74 71 71 70 68 65 67 71 68 66 67 62 60 58 60 61 61 61 61 61 61 62
80 80 77 76 75 75 75 74 75 76 74 75 76 77 75 75 76 75 73 72 70 74 70 73 72 69 70 70 69 68 66 64 63 60 59 59 60 61 61 59 58 60 59
80 79 77 77 77 77 77 76 73 75 73 74 71 74 72 72 75 70 70 70 67 69 69 70 69 66 60 65 70 66 66 63 61 59 58 58 59 59 58 59 57 59 59
79 79 79 78 78 76 76 76 74 72 72 70 71 71 69 70 52 55 64 69 68 68 67 66 68 64 60 53 54 55 64 62 60 59 59 58 59 59 59 57 57 57 61
79 80 79 78 78 77 77 76 74 71 70 66 67 69 68 69 49 51 55 68 66 66 68 66 66 67 66 66 54 53 53 52 58 62 59 60 59 60 60 58 60 62 64
80 80 80 79 79 78 77 75 73 71 70 62 63 68 67 64 48 49 52 68 67 65 65 65 64 66 62 63 62 61 59 60 63 63 62 62 62 63 66 64 63 67 67
81 80 81 81 79 78 76 74 74 72 68 68 67 64 65 63 47 49 59 66 64 62 62 61 60 63 48 50 60 60 59 59 49 48 51 51 50 53 60 68 69 69 67
82 82 82 82 80 78 76 74 75 75 70 69 61 61 57 60 46 48 60 67 61 60 61 62 50 56 47 51 63 62 59 63 67 63 59 55 58 57 53 72 75 73 72
85 84 83 81 79 79 76 75 74 75 74 67 66 64 67 63 59 48 50 66 62 60 63 64 58 45 47 49 54 66 62 67 62 70 70 70 69 69 73 76 76 78 72
85 84 82 80 81 80 75 75 75 74 72 70 67 65 69 65 54 47 45 54 57 66 69 67 60 43 44 47 56 45 48 59 75 73 72 73 74 74 73 73 70 72 72
84 82 81 80 80 79 76 74 76 74 75 75 73 70 67 64 64 47 46 46 49 71 75 55 44 43 43 49 44 48 46 76 77 75 74 74 75 73 68 67 66 66 66
82 80 80 79 78 79 80 78 79 77 78 78 78 76 74 68 65 63 69 68 52 67 55 65 56 55 49 59 60 62 76 76 76 75 74 72 69 66 68 70 69 68 66
81 81 79 80 77 78 79 80 80 79 76 80 79 79 76 75 73 63 66 73 75 70 70 71 73 75 74 73 73 72 75 74 73 72 70 70 71 72 72 72 72 70 67
79 81 81 82 79 81 79 77 45 50 54 51 53 66 77 57 48 48 50 47 46 49 71 74 75 76 76 77 76 76 77 70 77 77 75 74 74 73 72 71 72 71 70
81 81 83 78 81 81 80 79 76 62 47 46 46 48 49 52 45 44 43 42 43 49 76 77 77 77 77 78 78 78 76 77 77 76 76 75 74 74 69 70 71 71 69
82 62 84 83 83 83 81 81 82 79 74 74 49 55 45 43 42 41 40 46 63 60 77 79 78 79 79 79 80 80 80 78 77 76 76 75 74 74 70 70 70 69 68
83 84 85 84 85 80 84 82 83 82 81 80 78 52 48 41 40 39 40 75 75 75 77 79 81 80 80 80 80 80 79 79 76 75 75 75 74 74 72 72 72 52 56
84 68 74 85 85 84 84 83 83 82 81 81 81 79 73 59 67 67 65 72 78 79 80 80 81 81 81 81 80 80 79 75 75 75 75 75 75 74 74 72 71 65 61
87 84 69 86 86 85 84 84 84 83 83 82 82 80 57 74 76 76 75 74 76 80 81 82 83 82 81 81 81 80 79 78 76 75 76 76 75 73 73 73 71 64 60
88 87 82 86 87 85 85 85 84 84 84 84 84 79 44 76 81 81 80 79 79 80 83 82 83 83 83 82 81 80 80 79 78 77 76 77 75 74 73 72 68 60 57
90 88 83 85 87 71 81 85 85 85 85 85 86 85 74 79 81 83 82 83 82 81 81 82 82 83 84 84 83 82 81 81 81 80 77 75 75 73 71 67 63 58 57
91 88 86 85 86 86 84 83 85 69 84 85 85 85 84 80 80 81 84 84 84 83 83 82 82 82 83 83 83 83 83 83 83 82 78 77 75 66 71 65 62 59 55
91 87 86 84 86 84 84 84 84 86 84 85 85 85 86 85 82 82 84 85 84 83 82 82 82 81 81 81 83 82 70 45 70 64 80 76 74 71 67 63 60 52 46
90 88 86 86 85 85 84 83 83 84 85 84 85 85 85 85 85 83 83 83 84 84 83 83 82 81 81 81 81 67 44 42 57 42 74 75 72 70 65 61 56 47 43
MSLP
1005.59 1005.80 1005.96 1006.04 1006.33 1006.52 1006.56 1006.61 1006.63 1006.73 1006.64 1006.61 1006.74 1007.16 1007.40 1007.70 1008.00 1008.44 1008.56 1008.57 1008.75 1008.99 1009.33 1009.65 1010.31 1010.38 1010.22 1010.79 1011.00 1011.25 1011.47 1012.09 1012.60 1013.49 1014.03 1014.30 1014.46 1015.32 1016.27 1017.27 1018.55 1019.17 1020.04
1005.34 1005.59 1005.80 1006.04 1006.23 1006.47 1006.56 1006.58 1006.61 1006.78 1006.68 1006.74 1006.81 1007.11 1007.54 1007.73 1008.21 1008.32 1008.39 1008.61 1008.76 1009.06 1009.77 1009.92 1010.09 1010.40 1010.80 1011.24 1011.32 1011.42 1011.69 1012.19 1012.47 1013.49 1014.16 1014.82 1015.26 1016.24 1016.99 1017.89 1018.83 1019.74 1020.50
1005.05 1005.40 1005.82 1006.09 1006.25 1006.47 1006.55 1006.79 1006.72 1006.86 1006.80 1006.83 1006.96 1007.18 1007.52 1007.97 1008.40 1008.56 1008.74 1008.86 1009.23 1009.18 1009.83 1010.14 1010.20 1010.47 1010.85 1011.04 1010.96 1011.48 1011.90 1012.26 1012.91 1013.44 1014.16 1015.20 1015.90 1016.77 1017.72 1018.60 1019.38 1020.19 1020.89
1004.84 1005.20 1005.66 1006.08 1006.28 1006.42 1006.61 1006.83 1006.80 1006.89 1007.09 1007.10 1007.34 1007.47 1007.92 1008.27 1008.51 1008.79 1009.14 1009.32 1009.74 1009.54 1010.25 1010.18 1010.36 1010.70 1010.73 1010.82 1011.23 1011.70 1012.17 1012.88 1013.38 1014.00 1014.75 1015.72 1016.49 1017.55 1018.10 1018.76 1019.67 1020.37 1021.14
1004.74 1005.12 1005.58 1006.12 1006.34 1006.43 1006.53 1006.74 1007.20 1007.08 1007.69 1007.68 1008.08 1008.12 1008.71 1008.96 1009.11 1009.59 1009.78 1009.97 1010.19 1010.24 1010.53 1010.74 1011.07 1011.17 1011.27 1011.25 1011.52 1012.20 1012.57 1013.27 1013.98 1014.65 1015.55 1016.26 1016.95 1017.72 1018.35 1019.22 1019.89 1020.48 1021.24
1004.59 1004.96 1005.46 1005.97 1006.21 1006.48 1006.69 1006.78 1007.16 1007.63 1007.83 1008.32 1008.42 1008.74 1009.16 1009.48 1010.10 1010.19 1010.14 1010.17 1010.55 1010.63 1010.82 1011.15 1011.47 1011.81 1012.15 1012.33 1012.33 1012.57 1012.77 1013.46 1014.03 1014.78 1015.52 1016.32 1017.08 1017.75 1018.61 1019.43 1020.05 1020.55 1020.58
1004.40 1004.80 1005.34 1005.79 1006.07 1006.40 1006.72 1006.73 1007.16 1007.63 1008.29 1008.79 1008.91 1009.03 1009.48 1009.97 1010.67 1010.84 1010.79 1010.71 1010.91 1011.07 1011.14 1011.45 1011.84 1012.28 1012.29 1012.76 1013.09 1013.33 1013.74 1014.03 1014.43 1014.77 1015.41 1016.21 1016.94 1017.78 1018.50 1019.52 1019.81 1019.91 1020.22
1004.10 1004.57 1005.10 1005.52 1005.83 1006.31 1006.69 1006.93 1007.28 1007.73 1008.16 1009.03 1009.46 1009.43 1009.90 1010.64 1011.17 1011.30 1011.20 1011.15 1011.34 1011.70 1011.84 1012.05 1012.33 1012.52 1013.07 1013.32 1013.59 1013.96 1014.34 1014.94 1015.23 1015.30 1015.68 1016.45 1017.16 1017.79 1018.20 1018.85 1019.38 1019.65 1020.58
1003.60 1004.23 1004.77 1005.20 1005.59 1006.17 1006.60 1007.10 1007.29 1007.71 1008.27 1008.84 1009.45 1009.90 1010.28 1011.12 1011.58 1011.66 1011.55 1011.68 1011.99 1012.35 1012.60 1012.85 1013.14 1013.42 1013.73 1013.97 1014.26 1014.62 1015.04 1015.79 1016.17 1016.24 1016.46 1016.99 1017.62 1018.05 1018.35 1018.93 1018.95 1019.12 1019.66
1003.03 1003.79 1004.45 1004.93 1005.40 1005.97 1006.65 1007.17 1007.47 1007.57 1008.19 1008.85 1009.88 1010.37 1010.84 1011.45 1011.84 1011.92 1011.72 1011.95 1012.48 1012.83 1013.25 1013.59 1013.83 1014.10 1014.41 1014.57 1014.59 1014.79 1015.24 1015.59 1015.97 1016.70 1017.42 1017.96 1018.01 1018.56 1018.79 1018.17 1018.24 1018.14 1018.62
1002.65 1003.44 1004.21 1004.85 1005.34 1005.80 1006.75 1007.30 1007.57 1007.70 1008.10 1008.94 1009.72 1010.44 1010.78 1011.34 1011.90 1011.96 1011.96 1012.21 1012.81 1013.11 1013.38 1013.68 1014.42 1014.66 1014.80 1014.93 1014.87 1014.98 1015.23 1015.51 1015.96 1016.18 1016.90 1017.53 1017.98 1018.32 1018.26 1018.13 1018.09 1017.66 1018.38
1002.29 1003.06 1003.90 1004.74 1005.19 1005.75 1006.71 1007.28 1007.60 1008.02 1008.32 1008.86 1009.57 1010.21 1010.64 1011.60 1012.07 1012.42 1012.48 1012.39 1012.91 1012.99 1012.92 1013.70 1014.57 1014.90 1015.13 1015.31 1015.36 1015.59 1015.67 1015.59 1015.52 1015.90 1016.36 1016.72 1017.14 1017.60 1018.29 1018.64 1019.16 1019.20 1019.30
1001.96 1002.77 1003.68 1004.58 1005.12 1005.62 1006.45 1007.15 1007.49 1007.96 1008.03 1008.30 1008.63 1009.39 1010.56 1011.54 1012.17 1012.57 1012.90 1012.85 1013.00 1012.97 1013.03 1013.99 1014.65 1015.11 1015.32 1015.60 1015.72 1015.74 1015.69 1015.26 1015.25 1015.49 1016.02 1016.51 1017.02 1017.99 1018.95 1019.41 1019.99 1020.24 1020.32
1001.60 1002.52 1003.39 1004.26 1004.88 1005.49 1006.05 1006.79 1006.88 1007.32 1007.45 1007.67 1007.95 1008.50 1009.54 1010.80 1011.72 1012.47 1012.74 1013.12 1013.32 1013.33 1013.60 1014.15 1014.59 1014.74 1014.66 1015.36 1015.91 1015.87 1015.40 1015.38 1015.22 1015.59 1016.18 1017.14 1017.98 1018.62 1018.73 1019.02 1019.28 1019.74 1020.41
1001.28 1002.15 1002.97 1003.77 1004.70 1005.19 1005.60 1006.12 1006.46 1006.90 1007.11 1007.51 1007.72 1008.16 1008.89 1009.52 1010.49 1011.61 1011.88 1012.09 1012.42 1012.33 1012.96 1013.78 1013.71 1013.64 1014.13 1014.50 1014.79 1015.11 1015.00 1015.34 1015.40 1015.80 1016.23 1016.64 1017.03 1017.53 1017.90 1018.37 1018.75 1019.20 1019.49
1000.56 1001.47 1002.24 1002.86 1004.04 1004.44 1005.14 1006.18 1007.15 1007.44 1007.58 1008.04 1008.17 1008.28 1008.86 1009.41 1010.45 1011.38 1011.89 1012.10 1012.34 1012.61 1012.68 1012.60 1012.63 1012.83 1013.01 1013.33 1013.62 1013.94 1014.23 1014.81 1014.71 1015.13 1015.71 1016.14 1016.48 1016.90 1017.40 1018.07 1018.27 1018.39 1018.71
999.54 1000.43 1001.32 1002.11 1002.91 1003.49 1004.22 1004.92 1006.07 1007.94 1008.22 1008.58 1008.91 1009.09 1009.57 1010.07 1010.84 1011.60 1012.09 1012.43 1012.68 1012.81 1011.98 1011.76 1011.82 1012.08 1012.31 1012.54 1012.83 1013.16 1013.53 1014.08 1014.44 1014.86 1015.16 1015.58 1015.99 1016.42 1017.11 1017.39 1017.70 1018.08 1018.62
999.04 999.75 1000.36 1001.23 1001.84 1002.58 1003.34 1003.99 1004.64 1005.54 1006.95 1007.99 1009.04 1009.32 1009.92 1010.44 1011.02 1011.64 1012.16 1012.64 1013.04 1012.98 1011.55 1010.88 1010.95 1011.17 1011.45 1011.70 1012.01 1012.26 1012.65 1013.26 1013.91 1014.31 1014.57 1014.94 1015.37 1015.72 1016.37 1016.56 1017.09 1017.59 1018.24
998.25 998.99 999.58 1000.43 1000.95 1001.62 1002.37 1003.11 1003.66 1004.18 1004.89 1005.91 1007.02 1009.16 1009.97 1010.74 1011.35 1011.82 1011.90 1011.18 1010.92 1011.03 1010.85 1010.28 1010.20 1010.44 1010.73 1010.96 1011.31 1011.67 1012.05 1012.42 1013.15 1013.64 1013.84 1014.21 1014.57 1014.83 1015.26 1015.72 1016.16 1017.01 1017.94
997.45 997.97 998.77 999.45 1000.09 1001.03 1001.50 1002.06 1002.55 1003.12 1003.87 1004.47 1005.32 1006.55 1008.20 1010.01 1010.47 1010.86 1010.91 1010.42 1009.62 1009.41 1009.42 1009.49 1009.54 1009.81 1009.98 1010.34 1010.63 1011.01 1011.38 1012.03 1012.47 1012.83 1012.98 1013.28 1013.64 1013.93 1014.16 1014.77 1015.42 1016.77 1017.94
996.25 997.39 998.37 998.61 999.21 1000.03 1000.60 1001.10 1001.57 1002.08 1002.61 1003.34 1004.17 1005.37 1006.00 1007.75 1007.85 1008.09 1008.37 1008.57 1008.53 1008.20 1008.18 1008.39 1008.63 1008.94 1009.40 1009.60 1009.85 1010.09 1010.39 1010.77 1011.40 1011.74 1011.99 1012.28 1012.67 1013.03 1013.42 1013.80 1014.59 1016.28 1017.57
995.19 996.00 997.59 997.59 998.30 999.04 999.67 1000.22 1000.73 1001.11 1001.55 1002.15 1003.07 1004.36 1005.88 1006.67 1006.13 1006.08 1006.26 1006.61 1007.08 1007.28 1007.25 1007.51 1007.73 1007.92 1008.21 1008.58 1008.89 1009.18 1009.31 1009.57 1009.98 1010.54 1010.84 1011.12 1011.73 1012.27 1012.73 1013.23 1014.38 1016.13 1017.54
994.42 994.98 996.32 996.70 997.19 998.12 999.09 999.40 999.85 1000.18 1000.53 1001.05 1001.75 1002.65 1004.54 1004.68 1004.68 1004.47 1004.63 1004.96 1005.49 1006.00 1006.29 1006.46 1006.61 1006.84 1007.15 1007.47 1007.94 1008.22 1008.32 1008.39 1008.73 1009.32 1009.86 1010.29 1010.69 1011.27 1012.17 1013.00 1014.33 1015.80 1016.83
993.68 994.21 995.02 995.54 996.14 996.90 997.74 998.48 998.88 999.54 999.82 1000.17 1000.65 1001.09 1001.73 1002.76 1003.16 1003.28 1003.34 1003.81 1004.25 1004.66 1005.08 1005.36 1005.54 1005.66 1005.89 1006.12 1006.45 1006.96 1007.23 1007.53 1007.81 1008.15 1009.03 1009.49 1009.96 1011.02 1011.66 1013.16 1014.27 1015.10 1016.42
993.00 993.63 994.27 994.94 995.28 995.90 996.51 997.28 997.84 998.17 998.89 999.30 999.63 1000.05 1000.43 1000.93 1001.72 1002.03 1002.27 1002.56 1003.03 1003.55 1003.99 1004.36 1004.58 1004.81 1005.14 1005.34 1005.36 1005.64 1006.08 1006.92 1007.38 1007.65 1008.14 1008.97 1009.62 1010.42 1011.62 1012.84 1013.72 1015.14 1016.61
992.76 993.09 993.81 994.38 994.87 995.28 995.73 996.22 996.72 997.22 997.50 998.12 998.61 999.00 999.40 999.72 999.96 1000.65 1001.22 1001.55 1001.82 1002.16 1002.75 1003.18 1003.48 1003.68 1003.92 1004.28 1004.59 1004.90 1005.64 1006.44 1007.07 1007.89 1007.90 1008.37 1009.18 1010.20 1011.63 1012.58 1013.96 1015.66 1016.84
Wind_Speed
7 6 5 3 3 4 3 2 4 3 5 7 7 7 8 9 8 6 5 6 7 6 7 8 5 6 5 4 5 5 3 2 7 2 7 9 15 16 13 14 13 9 7
8 6 5 3 2 4 4 4 3 4 5 6 6 7 7 8 7 7 7 5 5 6 5 8 8 6 8 5 5 5 5 6 7 9 12 10 12 14 14 13 10 7 7
8 7 6 4 3 5 4 5 2 5 6 7 7 7 7 8 7 6 5 5 5 5 8 7 6 9 7 6 6 6 6 7 7 8 11 10 8 11 12 10 9 9 5
8 7 7 5 5 5 4 5 5 6 4 6 7 6 7 6 7 6 4 5 4 5 5 6 7 5 8 9 7 8 8 9 10 10 10 10 9 9 8 9 7 5 7
9 8 8 7 5 6 6 6 5 6 6 5 6 7 7 5 4 7 7 7 4 5 5 6 5 7 10 5 6 8 10 9 8 10 9 9 9 8 9 7 8 8 5
9 9 8 7 7 6 5 6 6 8 7 7 7 8 7 4 7 4 7 7 6 5 6 6 7 7 8 8 11 10 8 10 10 8 8 10 10 8 10 10 9 9 8
10 9 9 8 7 6 6 5 8 8 9 7 5 7 6 8 8 6 5 7 6 6 7 7 7 6 7 9 13 13 13 12 8 11 13 9 11 10 10 12 10 7 7
11 10 10 10 9 7 6 5 6 7 9 7 5 6 8 7 6 5 1 7 9 7 7 8 8 9 8 10 10 10 9 9 8 6 10 10 10 9 10 9 7 9 10
13 11 11 10 9 9 7 6 5 7 8 8 8 7 9 9 6 6 6 9 8 9 8 7 7 9 8 12 9 10 10 9 9 11 13 12 12 12 8 9 9 10 9
14 12 11 11 10 10 7 7 5 5 8 9 8 7 10 8 5 5 6 8 8 6 7 10 9 8 10 8 8 7 9 9 12 11 8 10 10 7 6 8 9 8 7
14 13 12 11 10 9 8 6 7 5 7 10 12 9 10 10 8 8 4 10 7 6 5 8 5 8 8 7 4 7 8 11 10 12 12 11 10 8 7 5 7 4 6
15 14 13 12 9 9 10 8 8 7 7 10 11 8 8 8 5 4 1 6 9 7 8 8 7 8 9 6 3 9 11 10 9 9 9 9 9 8 6 5 5 6 8
15 15 14 13 11 10 11 9 8 8 7 7 8 9 8 6 6 4 3 6 6 8 7 12 14 10 12 11 9 12 9 7 8 8 8 7 6 7 8 8 9 10 10
16 15 14 13 12 12 10 10 8 8 7 7 7 8 10 9 8 6 8 7 7 8 11 9 8 9 9 10 8 5 6 4 5 7 8 8 8 8 8 8 8 7 7
16 15 14 12 13 12 11 10 9 8 6 7 6 7 8 9 10 12 11 11 11 9 10 8 8 8 8 8 8 8 7 7 7 7 8 8 8 8 7 7 8 8 7
17 14 13 12 13 11 11 8 9 7 6 6 3 1 7 7 15 12 8 8 11 15 9 9 8 8 9 9 8 8 8 8 8 8 9 9 9 9 9 8 8 8 7
16 16 13 13 12 12 12 11 11 4 8 4 4 4 8 14 13 12 10 10 10 10 10 9 9 9 9 9 9 9 9 9 9 8 9 9 8 8 9 9 8 7 6
19 17 14 14 13 13 12 11 11 12 12 10 6 7 5 10 12 13 13 12 6 6 10 9 10 10 10 10 10 9 9 10 10 9 9 9 9 9 9 9 8 8 8
18 16 15 14 13 13 12 12 11 11 11 11 12 6 9 10 9 8 12 11 11 12 11 10 9 10 10 10 10 10 10 9 10 10 10 10 11 10 10 10 10 9 9
18 17 16 14 13 13 13 13 12 12 11 12 12 13 13 9 10 10 11 12 12 11 12 12 11 10 10 11 11 10 11 10 11 11 11 11 11 11 11 12 11 11 11
15 15 15 14 14 14 13 13 13 13 12 12 11 12 14 14 14 14 14 14 14 13 12 12 12 12 11 11 11 12 12 12 12 13 12 12 12 12 12 11 11 12 12
15 16 17 16 14 14 14 13 14 14 14 13 12 11 17 14 14 14 15 15 15 15 13 12 11 11 12 13 13 13 13 14 13 13 13 13 12 12 12 12 11 12 13
15 17 17 16 15 14 13 14 14 14 15 15 14 13 14 15 14 14 14 13 13 14 14 14 13 13 13 12 12 13 14 14 13 13 13 13 13 13 12 11 13 14 14
15 16 16 16 16 15 15 15 14 14 15 14 14 14 14 14 15 16 14 13 13 13 13 14 14 18 15 15 13 14 14 13 12 13 16 13 13 10 12 12 13 16 14
14 14 14 15 15 15 16 16 16 16 15 15 14 14 14 14 14 14 14 14 13 13 15 14 13 17 21 23 20 20 15 9 13 9 11 15 14 15 14 12 14 11 13
15 13 12 12 13 14 14 15 15 15 16 15 15 14 15 14 14 14 13 14 14 14 15 13 16 21 21 19 23 19 8 10 10 7 11 11 12 12 13 13 18 12 15
Wind_Direction
165 165 158 134 154 167 149 166 131 158 161 162 156 152 153 153 159 166 185 168 177 169 128 149 151 177 140 119 130 119 134 164 154 133 129 115 114 120 117 115 129 123 117
167 160 138 127 144 163 151 123 132 145 129 156 154 145 149 145 148 160 167 160 160 143 115 115 173 152 148 159 161 155 165 178 143 142 146 130 121 121 119 117 115 109 110
169 156 137 126 141 147 142 107 112 127 137 148 157 158 147 135 146 156 154 160 160 154 145 159 167 156 143 164 166 140 123 113 102 111 124 115 112 119 117 115 123 117 102
170 164 142 134 139 135 131 121 126 115 117 131 143 150 129 149 143 142 145 142 155 128 126 154 133 160 171 166 147 131 131 127 115 115 111 119 124 122 125 125 119 116 120
172 167 150 142 143 135 114 106 105 112 104 96 106 125 127 135 140 146 148 135 142 133 129 119 106 63 49 61 128 135 134 128 131 131 138 132 133 136 134 110 109 105 131
173 169 160 167 163 144 137 117 128 119 121 117 135 133 139 146 115 137 146 137 133 143 128 116 109 111 83 66 67 71 127 137 135 136 138 148 136 123 115 125 129 145 134
175 166 168 172 175 158 148 159 124 124 114 102 110 136 136 121 130 140 162 139 145 134 132 117 116 112 132 106 81 81 82 80 105 137 141 135 127 129 127 134 154 153 147
178 171 173 179 169 155 159 130 130 139 131 121 114 123 124 118 128 146 143 126 106 114 107 110 109 102 103 117 101 87 80 77 104 112 129 126 128 140 147 143 162 129 133
178 177 177 179 168 155 155 143 148 148 121 141 135 141 133 130 146 145 133 115 112 96 91 86 98 104 83 92 96 104 99 97 65 78 97 116 117 120 140 154 156 154 156
179 178 176 178 170 162 153 145 145 147 128 120 130 134 127 137 170 159 168 117 108 98 103 102 78 104 104 101 108 111 107 116 127 118 107 104 134 136 176 200 178 174 162
178 175 171 177 172 166 155 150 151 147 110 111 124 142 150 147 162 167 184 122 121 114 129 112 100 102 104 135 149 128 130 134 127 128 137 142 143 155 167 202 197 257 168
177 176 171 171 183 165 159 162 159 139 134 130 138 144 138 146 145 157 248 121 147 151 143 115 110 101 91 82 89 108 124 145 136 135 142 148 155 157 130 118 74 55 47
178 177 172 172 185 167 169 169 166 172 157 156 155 142 145 151 154 163 153 127 165 166 141 94 109 118 118 92 109 130 170 158 149 147 146 141 140 111 120 121 108 102 85
177 177 176 179 181 178 180 177 187 183 180 179 161 156 156 162 157 168 178 176 148 142 134 129 110 108 66 103 144 179 146 136 151 143 145 135 136 157 156 155 145 139 129
179 178 179 183 186 180 197 186 196 189 193 185 175 162 164 168 169 172 180 181 181 162 157 155 173 170 161 165 160 181 176 168 172 163 157 161 163 168 166 169 170 170 167
179 181 182 184 181 187 190 175 61 24 123 44 36 236 139 106 121 144 145 120 129 142 184 184 184 185 185 182 183 182 187 187 187 177 176 179 179 185 176 187 190 198 186
182 177 179 195 180 190 191 192 186 129 75 79 357 314 16 142 143 144 136 127 147 166 209 190 192 193 196 195 195 193 193 191 188 192 189 190 187 196 177 191 196 196 188
186 171 181 193 184 190 192 194 197 185 192 189 196 212 150 147 151 150 145 146 161 222 224 203 203 197 202 201 203 202 199 184 195 200 197 196 195 197 192 200 200 197 184
186 181 191 188 188 192 187 193 197 194 192 192 181 176 119 100 123 143 176 206 201 204 214 224 210 208 209 211 208 208 206 202 195 201 201 201 200 203 198 208 200 195 176
191 185 191 184 187 193 195 195 194 194 192 197 195 188 169 159 184 186 199 220 226 221 214 217 219 222 216 214 212 213 206 203 199 209 210 207 206 209 208 205 202 183 186
186 178 193 188 192 192 198 198 200 198 197 201 202 193 171 194 202 204 200 209 218 226 221 219 220 218 219 222 218 214 214 210 211 211 214 213 210 212 216 209 196 176 181
187 180 188 197 192 193 200 200 204 204 205 204 204 184 160 199 211 210 210 208 216 222 227 224 226 224 220 218 220 221 221 219 216 215 217 215 210 214 211 207 185 174 180
189 184 185 198 196 192 194 203 206 209 208 207 206 200 181 203 220 217 215 216 210 217 220 225 224 226 226 223 221 224 224 224 220 216 216 218 213 208 201 197 183 183 183
193 194 189 196 196 195 199 204 205 209 212 212 211 213 194 202 212 222 222 217 218 216 218 221 225 225 223 223 217 223 226 230 228 221 220 223 216 191 207 185 196 190 177
204 198 198 202 201 199 196 203 209 206 208 218 215 215 218 202 208 216 220 221 218 220 220 221 222 223 228 231 227 223 224 188 224 223 215 221 217 198 200 192 193 166 158
227 196 203 205 209 203 208 201 206 210 211 209 220 218 217 217 211 209 214 218 220 218 218 219 225 225 223 226 231 230 190 177 185 196 214 208 205 195 195 193 171 163 157